QPF
0.06 0.06 0.06 0.06 0.04 0.02 0.03 0.05 0.05 0.03 0.03 0.02 0.01 0.02 0.02 0.02 0.08 0.04 0.02 0.01 0.01 0.01 0.01 0.01 0.01 0.01 0.02 0.02 0.01 0.02 0.01 0.01 0.01 0.01 0.01 0.02 0.01 0.01 0.01 0.01 0.01 0.01 0.02
0.07 0.06 0.05 0.04 0.03 0.02 0.02 0.03 0.02 0.03 0.03 0.01 0.02 0.02 0.03 0.03 0.03 0.04 0.04 0.03 0.01 0.01 0.02 0.02 0.01 0.02 0.02 0.02 0.02 0.02 0.02 0.01 0.01 0.01 0.01 0.01 0.01 0.01 0.01 0.01 0.01 0.01 0.01
0.07 0.06 0.05 0.03 0.03 0.02 0.03 0.02 0.02 0.02 0.01 0.01 0.01 0.02 0.02 0.03 0.02 0.02 0.03 0.04 0.02 0.01 0.01 0.02 0.02 0.02 0.02 0.02 0.02 0.02 0.02 0.02 0.02 0.02 0.01 0.01 0.01 0.01 0.01 0.01 0.01 0.01 0.01
0.05 0.06 0.06 0.04 0.03 0.02 0.02 0.02 0.02 0.02 0.02 0.02 0.02 0.01 0.01 0.01 0.01 0.01 0.02 0.02 0.04 0.03 0.02 0.02 0.02 0.01 0.02 0.02 0.02 0.02 0.02 0.03 0.02 0.03 0.03 0.02 0.02 0.01 0.01 0.02 0.01 0.01 0.01
0.03 0.05 0.07 0.07 0.03 0.03 0.03 0.02 0.03 0.02 0.04 0.03 0.01 0.01 0.01 0.01 0.00 0.01 0.01 0.01 0.03 0.04 0.03 0.02 0.01 0.01 0.01 0.02 0.02 0.02 0.03 0.03 0.02 0.03 0.04 0.03 0.02 0.02 0.02 0.02 0.02 0.01 0.02
0.03 0.05 0.05 0.04 0.04 0.04 0.04 0.05 0.06 0.04 0.04 0.03 0.02 0.02 0.01 0.01 0.01 0.00 0.01 0.01 0.02 0.01 0.02 0.01 0.01 0.01 0.01 0.01 0.01 0.02 0.03 0.04 0.03 0.03 0.04 0.04 0.03 0.03 0.03 0.02 0.02 0.02 0.02
0.05 0.06 0.07 0.07 0.05 0.05 0.05 0.06 0.07 0.05 0.04 0.03 0.03 0.03 0.02 0.01 0.01 0.01 0.00 0.00 0.00 0.00 0.01 0.01 0.02 0.02 0.02 0.01 0.00 0.01 0.01 0.03 0.03 0.03 0.02 0.03 0.03 0.03 0.02 0.02 0.01 0.02 0.02
0.06 0.04 0.07 0.06 0.05 0.07 0.08 0.07 0.07 0.06 0.04 0.02 0.03 0.04 0.04 0.03 0.02 0.01 0.01 0.00 0.00 0.00 0.00 0.00 0.01 0.01 0.01 0.02 0.01 0.01 0.01 0.01 0.01 0.02 0.02 0.02 0.02 0.02 0.01 0.02 0.02 0.02 0.02
0.05 0.06 0.06 0.05 0.04 0.04 0.05 0.06 0.05 0.05 0.05 0.04 0.03 0.04 0.05 0.05 0.03 0.02 0.01 0.01 0.00 0.00 0.00 0.00 0.01 0.01 0.01 0.01 0.02 0.01 0.01 0.01 0.01 0.01 0.01 0.01 0.02 0.01 0.01 0.02 0.02 0.02 0.02
0.05 0.05 0.04 0.04 0.04 0.05 0.06 0.05 0.04 0.03 0.04 0.04 0.03 0.02 0.03 0.04 0.05 0.04 0.02 0.01 0.01 0.00 0.00 0.00 0.01 0.00 0.00 0.01 0.01 0.00 0.00 0.00 0.00 0.01 0.01 0.02 0.02 0.01 0.01 0.01 0.02 0.02 0.02
0.07 0.04 0.03 0.04 0.04 0.05 0.06 0.06 0.05 0.03 0.03 0.03 0.02 0.02 0.02 0.02 0.03 0.03 0.03 0.02 0.01 0.00 0.00 0.00 0.00 0.00 0.01 0.01 0.01 0.00 0.00 0.00 0.00 0.00 0.00 0.01 0.01 0.01 0.01 0.01 0.01 0.02 0.02
0.07 0.05 0.02 0.03 0.04 0.05 0.05 0.04 0.04 0.03 0.03 0.03 0.02 0.01 0.02 0.02 0.01 0.02 0.02 0.02 0.02 0.01 0.00 0.00 0.00 0.00 0.01 0.01 0.00 0.00 0.00 0.00 0.00 0.00 0.00 0.00 0.00 0.00 0.00 0.01 0.01 0.01 0.02
0.04 0.04 0.04 0.04 0.04 0.05 0.04 0.04 0.03 0.04 0.03 0.02 0.01 0.01 0.01 0.01 0.01 0.01 0.01 0.02 0.02 0.02 0.01 0.00 0.00 0.00 0.00 0.00 0.00 0.00 0.00 0.00 0.00 0.00 0.00 0.00 0.00 0.00 0.00 0.00 0.00 0.00 0.00
0.05 0.04 0.04 0.04 0.04 0.03 0.04 0.04 0.03 0.02 0.02 0.02 0.01 0.01 0.01 0.00 0.01 0.01 0.02 0.02 0.03 0.02 0.01 0.00 0.00 0.00 0.00 0.00 0.00 0.00 0.00 0.00 0.00 0.00 0.00 0.00 0.00 0.00 0.00 0.00 0.00 0.00 0.00
0.07 0.06 0.04 0.04 0.04 0.04 0.04 0.04 0.04 0.03 0.03 0.02 0.01 0.01 0.01 0.01 0.01 0.01 0.01 0.01 0.02 0.01 0.01 0.01 0.00 0.00 0.00 0.00 0.00 0.00 0.00 0.00 0.00 0.00 0.00 0.00 0.00 0.00 0.00 0.00 0.00 0.00 0.00
0.08 0.08 0.04 0.03 0.03 0.04 0.04 0.04 0.03 0.03 0.03 0.03 0.02 0.02 0.02 0.01 0.01 0.01 0.01 0.01 0.00 0.00 0.01 0.01 0.00 0.00 0.00 0.00 0.00 0.00 0.00 0.00 0.00 0.00 0.00 0.00 0.00 0.00 0.00 0.00 0.00 0.00 0.00
0.09 0.07 0.05 0.04 0.03 0.03 0.03 0.03 0.02 0.02 0.02 0.02 0.01 0.02 0.01 0.01 0.02 0.01 0.01 0.00 0.00 0.01 0.01 0.01 0.01 0.01 0.00 0.00 0.00 0.00 0.00 0.00 0.00 0.00 0.00 0.00 0.00 0.00 0.00 0.00 0.00 0.00 0.00
0.06 0.05 0.04 0.03 0.03 0.03 0.03 0.02 0.01 0.01 0.01 0.02 0.01 0.03 0.02 0.02 0.02 0.01 0.02 0.01 0.01 0.01 0.01 0.01 0.01 0.00 0.00 0.00 0.00 0.00 0.00 0.00 0.00 0.00 0.00 0.00 0.00 0.00 0.00 0.00 0.00 0.00 0.00
0.06 0.05 0.04 0.03 0.03 0.04 0.03 0.02 0.01 0.02 0.02 0.02 0.03 0.04 0.03 0.02 0.01 0.02 0.02 0.02 0.02 0.01 0.01 0.01 0.01 0.01 0.01 0.00 0.01 0.01 0.00 0.00 0.00 0.00 0.00 0.00 0.00 0.00 0.00 0.00 0.00 0.00 0.00
0.05 0.05 0.04 0.03 0.03 0.04 0.03 0.03 0.02 0.02 0.02 0.02 0.03 0.03 0.03 0.02 0.02 0.03 0.02 0.02 0.03 0.02 0.02 0.02 0.01 0.01 0.01 0.01 0.01 0.01 0.00 0.01 0.00 0.00 0.00 0.00 0.00 0.00 0.00 0.00 0.00 0.00 0.00
0.05 0.05 0.04 0.04 0.04 0.04 0.03 0.04 0.04 0.03 0.03 0.03 0.03 0.03 0.03 0.03 0.02 0.02 0.01 0.01 0.01 0.01 0.01 0.01 0.01 0.01 0.00 0.01 0.01 0.01 0.01 0.01 0.00 0.00 0.00 0.00 0.00 0.00 0.00 0.00 0.00 0.00 0.00
0.05 0.06 0.06 0.06 0.05 0.03 0.03 0.03 0.04 0.05 0.06 0.05 0.05 0.05 0.04 0.03 0.02 0.01 0.00 0.00 0.00 0.01 0.01 0.01 0.01 0.01 0.01 0.02 0.02 0.01 0.01 0.01 0.01 0.01 0.01 0.01 0.01 0.01 0.01 0.01 0.02 0.01 0.01
0.09 0.10 0.10 0.10 0.09 0.08 0.07 0.05 0.04 0.04 0.04 0.05 0.05 0.05 0.03 0.02 0.02 0.01 0.02 0.01 0.01 0.01 0.01 0.01 0.01 0.01 0.02 0.03 0.04 0.03 0.04 0.03 0.02 0.01 0.03 0.02 0.01 0.01 0.00 0.01 0.01 0.01 0.01
0.13 0.12 0.12 0.12 0.12 0.10 0.10 0.05 0.03 0.03 0.03 0.03 0.04 0.04 0.04 0.04 0.04 0.05 0.05 0.04 0.04 0.03 0.04 0.03 0.03 0.02 0.02 0.03 0.04 0.04 0.04 0.04 0.03 0.01 0.04 0.03 0.01 0.01 0.01 0.00 0.01 0.01 0.01
0.10 0.10 0.11 0.13 0.12 0.11 0.11 0.06 0.04 0.03 0.03 0.03 0.03 0.04 0.05 0.05 0.07 0.06 0.06 0.06 0.06 0.06 0.06 0.07 0.06 0.04 0.03 0.03 0.03 0.03 0.03 0.03 0.03 0.02 0.04 0.05 0.03 0.03 0.02 0.01 0.00 0.00 0.00
0.13 0.15 0.16 0.17 0.16 0.16 0.16 0.11 0.08 0.06 0.05 0.04 0.05 0.06 0.05 0.06 0.06 0.07 0.06 0.06 0.05 0.05 0.06 0.06 0.05 0.03 0.02 0.02 0.03 0.02 0.03 0.04 0.03 0.02 0.02 0.04 0.04 0.04 0.02 0.01 0.00 0.00 0.01
MSLP
1015.25 1015.53 1015.71 1015.82 1015.89 1015.95 1016.02 1016.10 1016.19 1016.28 1016.37 1016.45 1016.55 1016.68 1016.85 1017.09 1017.40 1017.78 1018.20 1018.63 1019.05 1019.42 1019.73 1019.99 1020.19 1020.35 1020.49 1020.62 1020.76 1020.89 1021.03 1021.17 1021.31 1021.44 1021.58 1021.72 1021.87 1022.02 1022.17 1022.32 1022.45 1022.56 1022.65
1014.94 1015.27 1015.52 1015.70 1015.84 1015.95 1016.06 1016.16 1016.26 1016.37 1016.47 1016.59 1016.71 1016.87 1017.05 1017.28 1017.56 1017.88 1018.22 1018.58 1018.93 1019.26 1019.57 1019.85 1020.10 1020.32 1020.53 1020.71 1020.87 1021.01 1021.12 1021.22 1021.32 1021.41 1021.53 1021.67 1021.83 1022.00 1022.18 1022.35 1022.49 1022.61 1022.70
1014.53 1014.92 1015.25 1015.53 1015.76 1015.96 1016.12 1016.27 1016.40 1016.53 1016.65 1016.79 1016.93 1017.10 1017.29 1017.50 1017.73 1017.98 1018.24 1018.51 1018.78 1019.06 1019.34 1019.63 1019.91 1020.19 1020.44 1020.67 1020.85 1020.99 1021.09 1021.16 1021.22 1021.28 1021.38 1021.52 1021.69 1021.89 1022.11 1022.31 1022.48 1022.60 1022.69
1014.09 1014.52 1014.94 1015.32 1015.67 1015.96 1016.21 1016.41 1016.58 1016.73 1016.88 1017.02 1017.18 1017.35 1017.53 1017.72 1017.90 1018.08 1018.26 1018.44 1018.63 1018.84 1019.08 1019.35 1019.65 1019.95 1020.24 1020.50 1020.71 1020.86 1020.95 1021.00 1021.03 1021.08 1021.16 1021.30 1021.50 1021.73 1021.97 1022.20 1022.39 1022.53 1022.62
1013.67 1014.14 1014.63 1015.11 1015.57 1015.97 1016.30 1016.57 1016.78 1016.96 1017.11 1017.27 1017.43 1017.60 1017.77 1017.93 1018.08 1018.20 1018.30 1018.40 1018.50 1018.64 1018.82 1019.05 1019.34 1019.65 1019.96 1020.24 1020.47 1020.63 1020.73 1020.77 1020.80 1020.85 1020.93 1021.08 1021.29 1021.54 1021.81 1022.06 1022.27 1022.42 1022.50
1013.33 1013.82 1014.36 1014.93 1015.48 1015.97 1016.39 1016.72 1016.97 1017.17 1017.34 1017.50 1017.66 1017.83 1018.00 1018.14 1018.26 1018.33 1018.36 1018.38 1018.40 1018.46 1018.58 1018.76 1019.01 1019.32 1019.63 1019.93 1020.19 1020.37 1020.49 1020.56 1020.60 1020.66 1020.76 1020.91 1021.13 1021.39 1021.67 1021.93 1022.14 1022.28 1022.34
1013.12 1013.60 1014.18 1014.80 1015.41 1015.98 1016.45 1016.83 1017.12 1017.34 1017.52 1017.69 1017.86 1018.03 1018.20 1018.33 1018.43 1018.47 1018.45 1018.41 1018.36 1018.34 1018.38 1018.51 1018.72 1018.99 1019.31 1019.63 1019.91 1020.13 1020.29 1020.40 1020.48 1020.56 1020.67 1020.84 1021.06 1021.31 1021.58 1021.82 1022.01 1022.13 1022.18
1013.04 1013.50 1014.07 1014.72 1015.37 1015.97 1016.49 1016.91 1017.22 1017.46 1017.65 1017.83 1018.00 1018.19 1018.36 1018.50 1018.59 1018.61 1018.56 1018.47 1018.36 1018.27 1018.24 1018.30 1018.46 1018.71 1019.02 1019.34 1019.66 1019.93 1020.15 1020.31 1020.44 1020.56 1020.70 1020.87 1021.07 1021.30 1021.54 1021.75 1021.90 1021.99 1022.01
1013.06 1013.48 1014.04 1014.67 1015.33 1015.94 1016.48 1016.91 1017.24 1017.49 1017.70 1017.89 1018.08 1018.28 1018.47 1018.63 1018.72 1018.74 1018.67 1018.54 1018.38 1018.23 1018.14 1018.14 1018.25 1018.46 1018.75 1019.09 1019.44 1019.76 1020.04 1020.27 1020.46 1020.63 1020.79 1020.96 1021.15 1021.35 1021.54 1021.70 1021.80 1021.85 1021.83
1013.10 1013.49 1014.01 1014.62 1015.25 1015.86 1016.39 1016.83 1017.17 1017.44 1017.66 1017.87 1018.09 1018.31 1018.52 1018.69 1018.80 1018.82 1018.75 1018.60 1018.41 1018.22 1018.07 1018.01 1018.07 1018.24 1018.51 1018.86 1019.23 1019.59 1019.93 1020.23 1020.47 1020.69 1020.88 1021.05 1021.23 1021.39 1021.53 1021.63 1021.69 1021.70 1021.65
1013.10 1013.46 1013.95 1014.52 1015.12 1015.70 1016.22 1016.66 1017.00 1017.28 1017.53 1017.76 1018.00 1018.25 1018.48 1018.68 1018.81 1018.85 1018.78 1018.63 1018.42 1018.19 1018.01 1017.90 1017.90 1018.03 1018.27 1018.60 1018.98 1019.38 1019.76 1020.10 1020.40 1020.66 1020.87 1021.06 1021.22 1021.35 1021.45 1021.51 1021.53 1021.51 1021.44
1013.01 1013.36 1013.82 1014.35 1014.92 1015.47 1015.97 1016.40 1016.75 1017.04 1017.31 1017.56 1017.83 1018.10 1018.36 1018.58 1018.73 1018.79 1018.74 1018.59 1018.38 1018.14 1017.93 1017.78 1017.74 1017.83 1018.03 1018.32 1018.68 1019.08 1019.48 1019.85 1020.19 1020.48 1020.72 1020.91 1021.07 1021.19 1021.26 1021.30 1021.30 1021.27 1021.20
1012.82 1013.17 1013.61 1014.12 1014.65 1015.17 1015.65 1016.07 1016.43 1016.74 1017.02 1017.29 1017.57 1017.86 1018.14 1018.38 1018.55 1018.63 1018.61 1018.49 1018.29 1018.06 1017.84 1017.68 1017.60 1017.63 1017.78 1018.02 1018.34 1018.71 1019.10 1019.47 1019.82 1020.12 1020.38 1020.59 1020.76 1020.87 1020.95 1020.99 1020.99 1020.97 1020.92
1012.56 1012.92 1013.36 1013.84 1014.35 1014.85 1015.31 1015.72 1016.08 1016.40 1016.69 1016.97 1017.26 1017.55 1017.84 1018.09 1018.28 1018.39 1018.40 1018.32 1018.17 1017.97 1017.76 1017.59 1017.48 1017.47 1017.56 1017.74 1018.00 1018.31 1018.65 1018.99 1019.32 1019.62 1019.89 1020.11 1020.29 1020.43 1020.52 1020.58 1020.61 1020.61 1020.59
1012.30 1012.68 1013.10 1013.57 1014.06 1014.55 1014.99 1015.39 1015.75 1016.06 1016.34 1016.62 1016.90 1017.19 1017.47 1017.72 1017.94 1018.07 1018.13 1018.10 1018.00 1017.85 1017.68 1017.53 1017.42 1017.37 1017.40 1017.51 1017.69 1017.92 1018.18 1018.47 1018.76 1019.04 1019.30 1019.53 1019.72 1019.88 1020.00 1020.09 1020.15 1020.19 1020.20
1012.09 1012.47 1012.90 1013.37 1013.84 1014.30 1014.73 1015.12 1015.45 1015.74 1016.01 1016.27 1016.53 1016.79 1017.05 1017.30 1017.52 1017.69 1017.80 1017.84 1017.81 1017.73 1017.62 1017.51 1017.41 1017.34 1017.33 1017.37 1017.46 1017.60 1017.78 1017.99 1018.22 1018.45 1018.68 1018.90 1019.10 1019.28 1019.42 1019.54 1019.63 1019.70 1019.75
1011.97 1012.36 1012.78 1013.23 1013.69 1014.13 1014.53 1014.89 1015.20 1015.47 1015.70 1015.93 1016.15 1016.37 1016.61 1016.84 1017.06 1017.26 1017.41 1017.52 1017.58 1017.59 1017.56 1017.50 1017.44 1017.38 1017.33 1017.31 1017.33 1017.38 1017.47 1017.59 1017.74 1017.91 1018.10 1018.30 1018.49 1018.66 1018.81 1018.95 1019.05 1019.14 1019.21
1011.92 1012.30 1012.71 1013.14 1013.58 1013.99 1014.37 1014.70 1014.98 1015.21 1015.40 1015.58 1015.76 1015.94 1016.14 1016.35 1016.57 1016.78 1016.98 1017.16 1017.30 1017.40 1017.46 1017.47 1017.46 1017.42 1017.37 1017.31 1017.27 1017.24 1017.24 1017.28 1017.35 1017.45 1017.59 1017.74 1017.89 1018.05 1018.18 1018.31 1018.41 1018.50 1018.57
1011.87 1012.23 1012.63 1013.04 1013.44 1013.83 1014.18 1014.47 1014.72 1014.91 1015.07 1015.21 1015.34 1015.48 1015.64 1015.83 1016.04 1016.26 1016.50 1016.73 1016.94 1017.13 1017.27 1017.36 1017.41 1017.41 1017.36 1017.29 1017.21 1017.12 1017.06 1017.02 1017.02 1017.05 1017.12 1017.21 1017.32 1017.43 1017.53 1017.62 1017.70 1017.76 1017.82
1011.73 1012.08 1012.45 1012.83 1013.20 1013.56 1013.88 1014.15 1014.37 1014.54 1014.68 1014.79 1014.89 1015.00 1015.13 1015.29 1015.48 1015.71 1015.97 1016.24 1016.50 1016.75 1016.96 1017.12 1017.22 1017.26 1017.24 1017.17 1017.07 1016.95 1016.84 1016.75 1016.68 1016.66 1016.67 1016.70 1016.75 1016.80 1016.85 1016.89 1016.92 1016.94 1016.96
1011.43 1011.75 1012.09 1012.44 1012.79 1013.12 1013.42 1013.68 1013.89 1014.06 1014.19 1014.29 1014.38 1014.48 1014.59 1014.73 1014.92 1015.14 1015.40 1015.68 1015.98 1016.26 1016.51 1016.71 1016.85 1016.93 1016.93 1016.88 1016.78 1016.65 1016.52 1016.39 1016.29 1016.22 1016.18 1016.16 1016.15 1016.15 1016.14 1016.12 1016.09 1016.06 1016.05
1010.92 1011.21 1011.51 1011.84 1012.16 1012.48 1012.77 1013.04 1013.27 1013.46 1013.61 1013.73 1013.84 1013.94 1014.05 1014.19 1014.36 1014.57 1014.82 1015.10 1015.39 1015.67 1015.93 1016.15 1016.31 1016.40 1016.42 1016.38 1016.29 1016.17 1016.04 1015.91 1015.80 1015.71 1015.64 1015.58 1015.53 1015.47 1015.40 1015.33 1015.25 1015.17 1015.11
1010.23 1010.49 1010.77 1011.06 1011.37 1011.68 1011.99 1012.28 1012.54 1012.77 1012.97 1013.13 1013.28 1013.41 1013.54 1013.68 1013.85 1014.04 1014.26 1014.51 1014.77 1015.03 1015.26 1015.46 1015.61 1015.70 1015.72 1015.69 1015.62 1015.52 1015.40 1015.29 1015.18 1015.10 1015.02 1014.95 1014.87 1014.78 1014.68 1014.56 1014.43 1014.31 1014.22
1009.47 1009.69 1009.94 1010.22 1010.52 1010.84 1011.17 1011.49 1011.80 1012.08 1012.34 1012.56 1012.75 1012.92 1013.08 1013.23 1013.39 1013.57 1013.76 1013.96 1014.17 1014.38 1014.56 1014.72 1014.83 1014.89 1014.91 1014.87 1014.81 1014.73 1014.64 1014.55 1014.47 1014.41 1014.35 1014.29 1014.21 1014.11 1013.99 1013.84 1013.68 1013.53 1013.40
1008.79 1008.99 1009.21 1009.47 1009.77 1010.10 1010.45 1010.80 1011.16 1011.49 1011.79 1012.07 1012.31 1012.51 1012.70 1012.86 1013.01 1013.17 1013.32 1013.48 1013.63 1013.77 1013.89 1013.99 1014.04 1014.06 1014.05 1014.00 1013.94 1013.87 1013.81 1013.75 1013.72 1013.69 1013.66 1013.63 1013.57 1013.48 1013.35 1013.20 1013.02 1012.84 1012.68
1008.35 1008.52 1008.73 1008.98 1009.27 1009.60 1009.96 1010.34 1010.71 1011.08 1011.41 1011.71 1011.98 1012.20 1012.40 1012.56 1012.70 1012.83 1012.95 1013.05 1013.15 1013.23 1013.28 1013.31 1013.31 1013.28 1013.22 1013.16 1013.09 1013.03 1012.98 1012.96 1012.96 1012.97 1012.98 1012.98 1012.95 1012.88 1012.77 1012.61 1012.43 1012.23 1012.05
Thickness
5753 5751 5750 5749 5748 5747 5746 5745 5746 5746 5745 5746 5746 5746 5746 5745 5743 5739 5734 5732 5731 5730 5728 5726 5724 5723 5721 5720 5719 5718 5717 5716 5715 5713 5712 5711 5710 5709 5709 5708 5707 5706 5705
5752 5750 5749 5748 5748 5747 5746 5745 5745 5744 5744 5745 5746 5745 5744 5743 5742 5739 5735 5732 5731 5729 5728 5726 5724 5722 5721 5720 5719 5717 5716 5715 5714 5713 5712 5710 5709 5708 5708 5707 5706 5705 5704
5751 5750 5749 5748 5747 5746 5745 5744 5744 5744 5744 5744 5744 5744 5743 5742 5742 5740 5736 5734 5731 5729 5728 5726 5724 5723 5721 5720 5718 5717 5716 5714 5713 5712 5711 5710 5709 5708 5707 5706 5705 5704 5703
5750 5748 5747 5747 5746 5745 5744 5743 5743 5742 5742 5742 5741 5742 5742 5742 5741 5740 5738 5736 5733 5731 5728 5727 5725 5724 5722 5720 5719 5717 5716 5714 5713 5712 5711 5710 5708 5707 5706 5705 5704 5703 5702
5748 5747 5747 5746 5745 5744 5744 5743 5742 5741 5739 5739 5740 5740 5741 5741 5740 5740 5739 5738 5735 5733 5730 5728 5726 5725 5723 5721 5720 5718 5717 5715 5714 5712 5711 5709 5708 5707 5706 5705 5704 5702 5701
5747 5747 5746 5744 5744 5743 5742 5741 5739 5740 5739 5738 5740 5739 5740 5740 5740 5740 5739 5739 5737 5735 5733 5730 5727 5725 5724 5723 5721 5719 5718 5716 5714 5713 5711 5710 5709 5707 5706 5705 5704 5703 5701
5746 5746 5746 5743 5743 5741 5740 5739 5738 5736 5736 5738 5735 5733 5736 5739 5739 5739 5739 5739 5738 5737 5734 5732 5729 5728 5726 5724 5722 5720 5718 5717 5715 5714 5712 5711 5709 5708 5707 5706 5704 5703 5702
5745 5745 5744 5742 5742 5740 5739 5738 5737 5735 5736 5738 5733 5728 5724 5727 5734 5740 5739 5738 5738 5737 5736 5734 5732 5730 5728 5725 5723 5721 5719 5718 5716 5714 5713 5711 5710 5709 5707 5706 5705 5703 5702
5744 5744 5743 5742 5741 5739 5737 5736 5736 5733 5732 5735 5736 5730 5723 5720 5725 5733 5737 5738 5738 5737 5736 5736 5734 5732 5730 5727 5725 5721 5720 5718 5716 5715 5713 5711 5710 5709 5707 5706 5705 5703 5702
5743 5743 5742 5742 5740 5739 5737 5736 5736 5735 5733 5730 5733 5735 5733 5730 5724 5722 5730 5736 5737 5735 5736 5736 5735 5733 5731 5729 5726 5723 5720 5718 5716 5714 5713 5711 5710 5709 5707 5706 5704 5703 5702
5742 5741 5741 5741 5739 5738 5737 5736 5735 5735 5734 5732 5731 5732 5732 5732 5732 5725 5722 5727 5732 5735 5735 5735 5735 5733 5732 5730 5727 5724 5721 5719 5716 5714 5712 5711 5710 5708 5707 5705 5704 5703 5701
5739 5740 5740 5739 5738 5737 5736 5735 5734 5734 5733 5733 5733 5733 5732 5730 5729 5729 5726 5725 5727 5732 5736 5736 5735 5734 5733 5731 5729 5725 5722 5719 5716 5714 5712 5710 5709 5707 5706 5705 5703 5702 5701
5737 5738 5739 5737 5737 5736 5735 5734 5733 5732 5732 5732 5731 5732 5734 5735 5735 5733 5729 5727 5728 5731 5733 5735 5735 5734 5733 5731 5728 5725 5721 5718 5716 5713 5711 5709 5707 5706 5705 5703 5702 5701 5700
5738 5738 5738 5736 5735 5735 5734 5733 5732 5732 5732 5731 5732 5732 5732 5734 5736 5734 5731 5727 5723 5725 5728 5731 5735 5734 5732 5730 5727 5723 5720 5717 5715 5713 5710 5708 5707 5705 5703 5702 5700 5699 5698
5738 5737 5736 5734 5734 5733 5732 5731 5730 5730 5731 5730 5730 5731 5731 5732 5734 5734 5734 5731 5723 5716 5719 5727 5730 5733 5731 5729 5725 5722 5720 5717 5714 5712 5710 5708 5706 5704 5702 5700 5699 5697 5696
5738 5735 5734 5733 5732 5731 5730 5729 5729 5730 5729 5728 5729 5730 5729 5730 5731 5732 5732 5731 5728 5722 5717 5724 5727 5730 5728 5727 5722 5720 5718 5716 5713 5711 5709 5707 5705 5703 5701 5699 5697 5696 5694
5736 5734 5732 5731 5730 5729 5729 5727 5727 5728 5726 5726 5727 5728 5727 5727 5727 5728 5728 5727 5726 5723 5717 5720 5725 5726 5724 5721 5718 5716 5715 5713 5711 5709 5708 5706 5704 5702 5700 5698 5696 5694 5693
5734 5733 5731 5730 5729 5728 5727 5726 5725 5726 5725 5725 5725 5725 5724 5724 5723 5723 5722 5722 5721 5721 5716 5713 5717 5718 5718 5717 5715 5712 5711 5711 5710 5709 5707 5705 5703 5700 5698 5696 5694 5693 5691
5733 5732 5730 5729 5728 5728 5727 5726 5725 5725 5725 5725 5724 5723 5722 5721 5719 5719 5718 5717 5717 5717 5715 5711 5710 5712 5713 5713 5710 5708 5708 5707 5706 5707 5706 5703 5700 5698 5696 5694 5692 5690 5689
5733 5732 5731 5729 5728 5727 5726 5725 5724 5723 5723 5723 5723 5722 5721 5719 5717 5716 5714 5712 5712 5710 5709 5706 5705 5706 5707 5708 5706 5702 5700 5701 5701 5702 5702 5700 5698 5696 5693 5692 5690 5688 5686
5733 5732 5730 5729 5728 5727 5726 5725 5723 5722 5721 5720 5720 5719 5719 5717 5716 5714 5712 5709 5707 5704 5702 5700 5699 5700 5699 5698 5697 5697 5695 5695 5696 5697 5695 5695 5694 5692 5690 5688 5686 5685 5683
5733 5731 5729 5727 5726 5727 5726 5724 5723 5721 5719 5717 5715 5715 5715 5714 5712 5710 5708 5705 5703 5700 5697 5694 5694 5693 5693 5693 5693 5691 5688 5685 5684 5690 5687 5687 5688 5686 5686 5685 5684 5683 5680
5731 5729 5727 5726 5724 5724 5723 5722 5720 5719 5717 5715 5713 5711 5710 5712 5709 5707 5704 5701 5699 5696 5692 5689 5687 5687 5686 5686 5684 5681 5679 5676 5676 5679 5677 5676 5678 5677 5679 5679 5678 5677 5675
5729 5727 5725 5724 5722 5721 5720 5718 5716 5714 5713 5712 5710 5708 5706 5705 5704 5701 5699 5696 5694 5692 5689 5685 5684 5683 5682 5679 5676 5674 5671 5670 5671 5671 5669 5665 5668 5668 5671 5671 5670 5669 5668
5726 5724 5722 5721 5719 5717 5715 5713 5710 5709 5707 5706 5705 5704 5702 5699 5697 5694 5691 5689 5688 5687 5685 5683 5680 5678 5675 5672 5668 5664 5661 5658 5658 5661 5662 5657 5659 5659 5660 5661 5662 5660 5659
5722 5720 5718 5716 5714 5712 5709 5706 5703 5702 5700 5699 5698 5697 5695 5692 5690 5687 5683 5681 5678 5677 5675 5674 5671 5670 5667 5664 5661 5656 5653 5649 5648 5649 5653 5648 5647 5646 5646 5651 5651 5650 5648